{"data":{"norad_id":66580,"epoch":"2026-05-24T17:58:51.521952Z","epoch_age_seconds":106768,"freshness":"FRESH","line1":"1 66580U 25268Z   26144.74920743  .00007169  00000+0  26988-3 0  9999","line2":"2 66580  43.0012 277.3825 0001325 283.2185  76.8519 15.27567662 29599","mean_motion":15.27567662,"eccentricity":0.0001325,"inclination_deg":43.0012,"raan_deg":277.3825,"arg_perigee_deg":283.2185,"mean_anomaly_deg":76.8519,"bstar":0.00026988,"rev_number":2959,"period_min":94.26751009606,"perigee_km":482.17692864599,"apogee_km":483.99515275178,"semimajor_km":6861.2230406989,"source":"CELESTRAK","updated_at":"2026-05-25T13:38:21.284760Z"}}